Zurück zum Katalog

PUNCH-WFI03

AktivWissenschaftSSO
NORAD 63180·PAYLOAD·🇺🇸 United States

Gestartet Mar 12, 2025 von Vandenberg Space Force Base

Loading…

Nächste Überflüge (nächste 24 Stunden)

TLE

AktuellSource: Space-Track

Epoche: Sep 14, 2026, 10:58 UTC

1 63180U 25047C   26257.45723740  .00000364  00000-0  62420-4 0  9991
2 63180  97.9568  80.8755 0008825 238.1534 121.8816 14.74428558 81213

Verfolge PUNCH-WFI03 in Echtzeit mit AllMySat

Download on the App Store